Regional Weather Roundup
Issued by NWS

Home | Current Version | Previous Version | Text Only | Print | Product List | Glossary On
Versions: 1 2 3 4 5 6 7 8 9 10 11 12 13 14 15 16 17 18 19 20 21 22 23 24 25 26 27 28 29 30 31 32 33 34 35 36 37 38 39 40 41 42 43 44 45 46 47 48 49 50
000
ASUS42 KFFC 271803
RWRGA
WEATHER ROUNDUP FOR GEORGIA
NATIONAL WEATHER SERVICE PEACHTREE CITY GA
200 PM EDT WED MAY 27 2015

NOTE: "FAIR" INDICATES FEW OR NO CLOUDS BELOW 12,000 FEET WITH NO
SIGNIFICANT WEATHER AND/OR OBSTRUCTIONS TO VISIBILITY.

* = USE WITH CAUTION. THE STATIONS MARKED WITH AN ASTERISK MAY NOT
REPORT WEATHER SUCH AS PRECIPITATION, FOG, OR THUNDER AND ARE NOT
QUALITY CONTROLLED BY NWS.

THE REMARK "TC" DENOTES TEMPERATURE READING IN DEGREES CELSIUS.

GAZ001>058-271900-
NORTH GEORGIA

CITY           SKY/WX    TMP DP  RH WIND       PRES   REMARKS
ATLANTA        PTSUNNY   79  67  66 CALM      30.24F
6HR MIN TEMP:  68; 6HR MAX TEMP:  80;

ATHENS         CLOUDY    75  65  70 CALM      30.26F
6HR MIN TEMP:  68; 6HR MAX TEMP:  75;

CHAMBLEE       PTSUNNY   79  67  66 W5        30.24F
6HR MIN TEMP:  66; 6HR MAX TEMP:  80;

PEACHTREE CITY PTSUNNY   79  67  66 VRB6      30.24F
6HR MIN TEMP:  67; 6HR MAX TEMP:  81;

ROME           SUNNY     80  65  59 S6        30.22F
6HR MIN TEMP:  67; 6HR MAX TEMP:  80;

WEST ATLANTA   PTSUNNY   79  67  66 CALM      30.23F
6HR MIN TEMP:  67; 6HR MAX TEMP:  79;

GAINESVILLE    CLOUDY    75  65  70 CALM      30.27F
6HR MIN TEMP:  65; 6HR MAX TEMP:  75;

CARTERSVILLE   PTSUNNY   78  63  59 CALM      30.24F
6HR MIN TEMP:  66; 6HR MAX TEMP:  79;



CITY           SKY/WX    TMP DP  RH WIND       PRES   REMARKS
DALTON*        PTSUNNY   77  64  65 CALM      30.24F
LAWRENCEVILLE* PTSUNNY   77  64  65 S6        30.24F
MARIETTA       PTSUNNY   78  66  67 W2        30.24F
KENNESAW*      PTSUNNY   77  64  65 NW6       30.26F
BLAIRSVILLE*     N/A     77  35  22 W6        30.27F
$$

GAZ059>098-102>109-271900-
CENTRAL GEORGIA

CITY           SKY/WX    TMP DP  RH WIND       PRES   REMARKS
AUGUSTA-BUSH   MOSUNNY   84  68  58 VRB3      30.22F
6HR MIN TEMP:  70; 6HR MAX TEMP:  84;

AUGUSTA-DANIEL SUNNY     83  66  56 VRB3      30.24F
6HR MIN TEMP:  72; 6HR MAX TEMP:  83;

COLUMBUS       PTSUNNY   81  68  64 SE7       30.20F
6HR MIN TEMP:  67; 6HR MAX TEMP:  82;

MACON          PTSUNNY   83  68  60 VRB5      30.23F
6HR MIN TEMP:  67; 6HR MAX TEMP:  83;

ROBINS AFB     PTSUNNY   82  70  65 VRB1      30.22F


CITY           SKY/WX    TMP DP  RH WIND       PRES   REMARKS
LAGRANGE*      PTSUNNY   85  74  69 S3        30.22F HX  93
SYLVANIA*      CLOUDY    85  71  62 S3        30.23F HX  90
MILLEDGEVILLE* PTSUNNY   79  72  78 CALM      30.25S
$$

GAZ099>101-110>166-271900-
SOUTH GEORGIA

CITY           SKY/WX    TMP DP  RH WIND       PRES   REMARKS
SAVANNAH       PTSUNNY   85  65  51 SE10      30.23F
6HR MIN TEMP:  75; 6HR MAX TEMP:  85;

VALDOSTA       PTSUNNY   86  68  54 VRB6      30.20F
6HR MIN TEMP:  72; 6HR MAX TEMP:  86; 6HR PCP: TRACE;

ALMA           CLOUDY    83  68  60 SE7       30.22F
6HR MIN TEMP:  71; 6HR MAX TEMP:  85;

FT STEWART     PTSUNNY   86  64  47 SE8       30.20F
ALBANY         PTSUNNY   84  69  60 W6        30.22F
HUNTER AFB     MOSUNNY   84  68  57 SE12      30.22F
MOODY AFB      PTSUNNY   86  67  54 SE6       30.20S
BRUNSWICK      MOSUNNY   84  63  48 SE7G17    30.25S


CITY           SKY/WX    TMP DP  RH WIND       PRES   REMARKS
BAINBRIDGE*    PTSUNNY   86  73  66 NW3       30.20F HX  93
MOULTRIE*      PTSUNNY   86  68  54 CALM      30.21F
VIDALIA*       MOSUNNY   86  68  54 S3        30.22F
WAYCROSS*      MOSUNNY   85  69  58 E8G17     30.21F
DOUGLAS*       PTSUNNY   86  68  54 CALM      30.23F
$$



USA.gov is the U.S. government's official web portal to all federal, state and local government web resources and services.